weather.gov     
National Weather Service

Regional Weather Roundup
NWS Homepage
This page is being discontinued on March 12, 2014.
The same data is available at this site. Please update your bookmarks.
Thank you, and we apologize for the inconvenience.
Please send an email to SR-SRH.Webmaster@noaa.gov with any concerns.


Current Version
Previous Version:    01  02  03  04  05  06  07  08  09  10  11  12  13  14  15  16  17  18  19  20  21  22  23  24  25  26  
[Printable]
510
ASUS44 KLZK 241505
RWRLZK

WEATHER ROUNDUP FOR ARKANSAS
NATIONAL WEATHER SERVICE LITTLE ROCK AR
1000 AM CDT FRI OCT 24 2014

NOTE: "FAIR" INDICATES FEW OR NO CLOUDS BELOW 12,000 FEET WITH NO
SIGNIFICANT WEATHER AND/OR OBSTRUCTIONS TO VISIBILITY.

ARZ001-003-010-029-241600-
NORTHWEST ARKANSAS

CITY           SKY/WX    TMP DP  RH WIND       PRES   REMARKS
FAYETTEVILLE   SUNNY     61  56  83 S3        30.17R
FORT SMITH     MOSUNNY   59  54  83 NE6       30.16F
HARRISON       SUNNY     60  55  83 CALM      30.16R
BENTONVILLE    SUNNY     61  52  72 SW6       30.16R
ROGERS         SUNNY     63  55  75 SW7       30.16S
SILOAM SPGS    SUNNY     61  50  67 S6        30.17R
HIGHFILL       SUNNY     59  54  83 S6        30.15R
SPRINGDALE     MOSUNNY   61  55  82 S3        30.17S
$$

ARZ004-005-016-241600-
NORTH CENTRAL ARKANSAS

CITY           SKY/WX    TMP DP  RH WIND       PRES   REMARKS
BATESVILLE     SUNNY     54  52  94 CALM      30.16S
FLIPPIN        SUNNY     54  46  76 E3        30.16S
MTN HOME       SUNNY     57  52  83 S3        30.15R
$$

ARZ040-041-241600-
WEST CENTRAL ARKANSAS

CITY           SKY/WX    TMP DP  RH WIND       PRES   REMARKS
MENA           SUNNY     64  55  72 CALM      30.19S
MOUNT IDA      SUNNY     56  53  90 CALM      30.16R
$$

ARZ009-017-025-026-028-241600-
NORTHEAST ARKANSAS

CITY           SKY/WX    TMP DP  RH WIND       PRES   REMARKS
CORNING        FAIR      55  50  82 W3        30.16S
JONESBORO      MOSUNNY   56  50  80 SW5       30.16F
NEWPORT        MOSUNNY   58  51  77 S6        30.18S
WALNUT RIDGE   CLOUDY    52  46  82 NW6       30.17R
BLYTHEVILLE    SUNNY     59  51  75 VRB6      30.17R
$$

ARZ022-023-033-042-044-241600-
CENTRAL ARKANSAS

CITY           SKY/WX    TMP DP  RH WIND       PRES   REMARKS
LITTLE ROCK    MOSUNNY   61  48  62 W3        30.18S
N LITTLE ROCK  MOSUNNY   62  53  71 SW5       30.18S
JACKSONVILLE   SUNNY     59  50  74 W2        30.18R
SEARCY         SUNNY     58  50  75 CALM      30.19S
HOT SPRINGS    SUNNY     57  51  80 W5        30.20R
RUSSELLVILLE   SUNNY     57  52  83 CALM      30.18R
$$

ARZ036-241600-
EAST ARKANSAS

CITY           SKY/WX    TMP DP  RH WIND       PRES   REMARKS
WEST MEMPHIS   SUNNY     58  50  75 NW5       30.16S
$$

ARZ050-053-066-070-073-241600-
SOUTHWEST ARKANSAS

CITY           SKY/WX    TMP DP  RH WIND       PRES   REMARKS
ARKADELPHIA    FAIR      59  54  83 CALM      30.20R
CAMDEN         SUNNY     59  50  72 CALM      30.20S
TEXARKANA      SUNNY     62  52  69 CALM      30.20R
EL DORADO      SUNNY     58  51  78 CALM      30.20R
DE QUEEN       SUNNY     60  55  83 CALM      30.19R
$$

ARZ056-057-069-241600-
SOUTHEAST ARKANSAS

CITY           SKY/WX    TMP DP  RH WIND       PRES   REMARKS
PINE BLUFF     SUNNY     58  49  72 CALM      30.18S
STUTTGART      SUNNY     61  50  67 W3        30.18F
MONTICELLO     SUNNY     60  49  66 NW3       30.18S

$$






U.S. Dept. of Commerce
NOAA National Weather Service
1325 East West Highway
Silver Spring, MD 20910
E-mail: w-nws.webmaster@noaa.gov
Page last modified: May 16, 2007
NATIONAL WEATHER SERVICE: for Safety, for Work, for Fun - FOR LIFE